Nenana Municipal Airport
PANN : rendu visible

Aérodrome :











RETROUVEZ-NOUS SUR...

 
LOGIN :

S'inscrire | Disclaimer

   EN    FR    IT 

 









Légende :    VFR   VFR Marginal   IFR   IFR Intensif   IFR Très Intensif
Visi : 
Plafond : 
>= 8 km
>= 3000ft
5 à 8 km
1000 à 3000 ft
1500m à 5 km
500 à 1000 ft
800 à 1500m
200 à 500 ft
< 800m
< 200 ft
Symboles :   Orages  Brouillard  Fortes neiges  Fortes précipitations  Vent > 20 kt






- Altitude de l'aérodrome : 362 ft
- Code IATA : ENN


PANN - Nenana Municipal

DERNIER METAR :
  • 120953Z AUTO 00000KT 10SM BKN075 10/08 A2966 RMK AO2 SLP051 T01000083 TSNO

METARs EXPIRÉS :
  • 120853Z AUTO 00000KT 10SM SCT080 12/09 A2966 RMK AO2 SLP048 T01170089 402170072 51002 TSNO
  • 120753Z AUTO 00000KT 10SM CLR 13/09 A2966 RMK AO2 SLP048 T01330094 TSNO

TAF N/A
FIR PAZA / Amérique du Nord



MET'MAP, la Météo Aéronautique d'un coup d'oeil ! - Copyright ORBIFLY Décembre 2007 - Disclaimer

ORBIFLY MET'MAP TEAM :

Programmation & Développement : Alexandra Zaïnal
Sur une idée originale de : Baudouin d'Aumeries
Assistance à la programmation : Marc-Olivier Méhu
Soutien technique & logistique : Manuel Goepfert

Contact : metmap@orbifly.com




SOURCES & CREDITS :

   NOAA       Earth
Advisory